Bremerton, WA

1:44 AM PDT on April 26, 2018 (GMT -0700)
Bremerton National

Weather History for KPWT - February, 2013

Change the Weather History Date:

Friday, February 22, 2013

  Actual Average Record
Temperature  
Mean Temperature 40 °F -  
Max Temperature 46 °F 46 °F 59 °F (2004)
Min Temperature 35 °F 32 °F 21 °F (2018)
Degree Days  
Heating Degree Days 24    
Moisture  
Dew Point 34 °F    
Average Humidity 82    
Maximum Humidity 87    
Minimum Humidity 66    
Precipitation  
Precipitation 0.79 in - - ()
Sea Level Pressure  
Sea Level Pressure 29.86 in    
Wind  
Wind Speed 16 mph (SSW)    
Max Wind Speed 25 mph    
Max Gust Speed 34 mph    
Visibility 10 miles    
Events      
Averages and records for this station are not official NWS values.
T = Trace of Precipitation, MM = Missing Value Source: NWS Daily Summary

Daily Weather History Graph

Daily Weather History Graph

Search for Another Location

Airport or City:

Astronomy

Feb. 22, 2013 Rise Set
Actual Time 7:03 AM PST 5:45 PM PST
Civil Twilight 6:32 AM PST 6:17 PM PST
Nautical Twilight 5:56 AM PST 6:52 PM PST
Astronomical Twilight 5:21 AM PST 7:28 PM PST
Moon 2:55 PM PST (2/22) 5:01 AM PST (2/22)
Length of Visible Light 11h 44m
Length of Day
10h 42m
Waxing Gibbous, 91% of the Moon is Illuminated
Feb 22
Waxing Gibbous
Feb 25
Full
Mar 4
Last Quarter
Mar 11
New
Mar 19
First Quarter

Hourly Weather History & Observations

Time (PST) Temp. Windchill Dew Point Humidity Pressure Visibility Wind Dir Wind Speed Gust Speed Precip Events Conditions
12:15 AM 39.2 °F 30.8 °F 35.6 °F 87% 30.07 in 10.0 mi South 15.0 mph 25.3 mph N/A   Mostly Cloudy
12:35 AM 39.2 °F 31.6 °F 35.6 °F 87% 30.06 in 10.0 mi SSW 12.7 mph 19.6 mph N/A   Overcast
12:55 AM 39.2 °F 30.8 °F 35.6 °F 87% 30.07 in 10.0 mi SSW 15.0 mph 18.4 mph N/A   Mostly Cloudy
1:15 AM 39.2 °F 31.2 °F 35.6 °F 87% 30.07 in 10.0 mi SSW 13.8 mph - N/A   Scattered Clouds
1:35 AM 39.2 °F 31.2 °F 35.6 °F 87% 30.06 in 10.0 mi SSW 13.8 mph - N/A   Mostly Cloudy
1:55 AM 39.2 °F 31.6 °F 35.6 °F 87% 30.07 in 10.0 mi South 12.7 mph - N/A   Overcast
2:15 AM 39.2 °F 32.0 °F 35.6 °F 87% 30.05 in 10.0 mi South 11.5 mph 18.4 mph N/A   Overcast
2:35 AM 39.2 °F 30.8 °F 35.6 °F 87% 30.06 in 5.0 mi SSW 15.0 mph - N/A   Overcast
2:55 AM 39.2 °F 30.8 °F 35.6 °F 87% 30.05 in 10.0 mi SSW 15.0 mph 20.7 mph N/A   Overcast
3:15 AM 39.2 °F 30.2 °F 35.6 °F 87% 30.03 in 10.0 mi SSW 17.3 mph 21.9 mph 0.01 in   Mostly Cloudy
3:35 AM 39.2 °F 30.8 °F 35.6 °F 87% 30.01 in 10.0 mi South 15.0 mph 21.9 mph 0.01 in   Overcast
3:55 AM 39.2 °F 31.6 °F 35.6 °F 87% 30.00 in 10.0 mi South 12.7 mph 17.3 mph 0.02 in   Overcast
4:15 AM 39.2 °F 32.0 °F 35.6 °F 87% 29.99 in 10.0 mi South 11.5 mph 19.6 mph N/A   Overcast
4:35 AM 39.2 °F 30.2 °F 35.6 °F 87% 29.98 in 10.0 mi South 17.3 mph 21.9 mph N/A   Overcast
4:55 AM 39.2 °F 30.8 °F 35.6 °F 87% 29.98 in 10.0 mi South 15.0 mph 23.0 mph 0.01 in   Overcast
5:15 AM 39.2 °F 30.8 °F 35.6 °F 87% 29.97 in 9.0 mi South 15.0 mph 21.9 mph 0.02 in   Overcast
5:35 AM 39.2 °F 30.5 °F 35.6 °F 87% 29.94 in 10.0 mi South 16.1 mph 24.2 mph 0.04 in   Overcast
5:55 AM 39.2 °F 30.8 °F 35.6 °F 87% 29.94 in 10.0 mi South 15.0 mph 21.9 mph 0.05 in   Overcast
6:15 AM 39.2 °F 30.8 °F 35.6 °F 87% 29.92 in 10.0 mi South 15.0 mph 24.2 mph N/A   Overcast
6:35 AM 39.2 °F 30.2 °F 35.6 °F 87% 29.89 in 10.0 mi South 17.3 mph 21.9 mph 0.01 in   Overcast
6:55 AM 39.2 °F 29.8 °F 35.6 °F 87% 29.89 in 10.0 mi South 18.4 mph 27.6 mph 0.02 in   Overcast
7:15 AM 39.2 °F 29.6 °F 35.6 °F 87% 29.89 in 7.0 mi South 19.6 mph 27.6 mph 0.02 in   Overcast
7:35 AM 39.2 °F 29.6 °F 35.6 °F 87% 29.89 in 9.0 mi South 19.6 mph 26.5 mph 0.04 in   Overcast
7:55 AM 39.2 °F 29.6 °F 35.6 °F 87% 29.87 in 9.0 mi South 19.6 mph 23.0 mph 0.09 in   Overcast
8:15 AM 39.2 °F 29.6 °F 35.6 °F 87% 29.87 in 7.0 mi South 19.6 mph 27.6 mph 0.07 in   Overcast
8:35 AM 39.2 °F 29.6 °F 35.6 °F 87% 29.86 in 9.0 mi South 19.6 mph 28.8 mph 0.15 in   Overcast
9:15 AM 39.2 °F 28.7 °F 35.6 °F 87% 29.84 in 9.0 mi South 23.0 mph 33.4 mph 0.05 in   Overcast
9:35 AM 39.2 °F 29.8 °F 33.8 °F 81% 29.83 in 10.0 mi South 18.4 mph 27.6 mph 0.10 in   Overcast
9:55 AM 39.2 °F 30.5 °F 33.8 °F 81% 29.81 in 10.0 mi South 16.1 mph 31.1 mph 0.15 in   Overcast
10:15 AM 39.2 °F 29.0 °F 33.8 °F 81% 29.81 in 10.0 mi South 21.9 mph 29.9 mph 0.04 in   Overcast
10:35 AM 37.4 °F 27.5 °F 33.8 °F 87% 29.81 in 10.0 mi South 18.4 mph 25.3 mph 0.10 in   Overcast
10:55 AM 39.2 °F 30.5 °F 33.8 °F 81% 29.81 in 10.0 mi South 16.1 mph 26.5 mph 0.14 in   Overcast
11:15 AM 39.2 °F 31.2 °F 35.6 °F 87% 29.79 in 10.0 mi South 13.8 mph 21.9 mph 0.04 in   Overcast
11:35 AM 39.2 °F 29.6 °F 35.6 °F 87% 29.77 in 10.0 mi South 19.6 mph 28.8 mph 0.06 in   Overcast
11:55 AM 39.2 °F 29.8 °F 35.6 °F 87% 29.76 in 10.0 mi South 18.4 mph 33.4 mph 0.08 in   Overcast
12:15 PM 39.2 °F 29.0 °F 35.6 °F 87% 29.75 in 10.0 mi South 21.9 mph 31.1 mph 0.03 in   Overcast
12:35 PM 39.2 °F 29.0 °F 35.6 °F 87% 29.74 in 10.0 mi South 21.9 mph 33.4 mph 0.05 in   Overcast
12:55 PM 39.2 °F 29.0 °F 35.6 °F 87% 29.74 in 10.0 mi South 21.9 mph 34.5 mph 0.06 in   Overcast
1:15 PM 41.0 °F 31.9 °F 35.6 °F 81% 29.72 in 10.0 mi South 19.6 mph 32.2 mph 0.01 in   Overcast
1:35 PM 41.0 °F 32.2 °F 37.4 °F 87% 29.71 in 8.0 mi South 18.4 mph 29.9 mph 0.01 in   Overcast
1:55 PM 41.0 °F 31.6 °F 37.4 °F 87% 29.73 in 5.0 mi South 20.7 mph 28.8 mph 0.02 in   Overcast
2:15 PM 41.0 °F 32.5 °F 37.4 °F 87% 29.70 in 10.0 mi South 17.3 mph 24.2 mph N/A   Overcast
2:35 PM 42.8 °F 34.8 °F 39.2 °F 87% 29.70 in 10.0 mi South 17.3 mph 23.0 mph N/A   Overcast
2:55 PM 44.6 °F 36.4 °F 41.0 °F 87% 29.71 in 10.0 mi South 20.7 mph 26.5 mph N/A   Overcast
3:15 PM 46.4 °F 38.1 °F 39.2 °F 76% 29.71 in 10.0 mi SSW 24.2 mph 31.1 mph N/A   Scattered Clouds
3:35 PM 44.6 °F 35.7 °F 37.4 °F 76% 29.73 in 10.0 mi SSW 24.2 mph 32.2 mph N/A   Partly Cloudy
3:55 PM 44.6 °F 35.7 °F 35.6 °F 71% 29.73 in 10.0 mi SSW 24.2 mph 29.9 mph N/A   Clear
4:15 PM 44.6 °F 37.2 °F 35.6 °F 71% 29.75 in 10.0 mi SW 17.3 mph 21.9 mph N/A   Clear
4:35 PM 44.6 °F 36.9 °F 33.8 °F 66% 29.76 in 10.0 mi SSW 18.4 mph 26.5 mph N/A   Clear
4:55 PM 42.8 °F 34.0 °F 33.8 °F 70% 29.77 in 10.0 mi SSW 20.7 mph 29.9 mph N/A   Clear
5:15 PM 42.8 °F 34.8 °F 33.8 °F 70% 29.76 in 10.0 mi SSW 17.3 mph 24.2 mph N/A   Partly Cloudy
5:35 PM 39.2 °F 30.2 °F 33.8 °F 81% 29.77 in 10.0 mi SSW 17.3 mph 24.2 mph N/A   Clear
5:55 PM 39.2 °F 29.8 °F 30.2 °F 70% 29.77 in 10.0 mi SSW 18.4 mph 28.8 mph N/A   Clear
6:15 PM 39.2 °F 29.0 °F 30.2 °F 70% 29.78 in 10.0 mi SSW 21.9 mph 31.1 mph N/A   Clear
6:35 PM 37.4 °F 25.9 °F 30.2 °F 75% 29.78 in 10.0 mi SSW 25.3 mph 31.1 mph N/A   Clear
6:55 PM 37.4 °F 28.5 °F 30.2 °F 75% 29.78 in 10.0 mi SSW 15.0 mph - N/A   Clear
7:15 PM 37.4 °F 27.5 °F 30.2 °F 75% 29.81 in 10.0 mi SSW 18.4 mph 28.8 mph N/A   Partly Cloudy
7:35 PM 35.6 °F 25.9 °F 30.2 °F 81% 29.82 in 10.0 mi SSW 16.1 mph 24.2 mph N/A   Partly Cloudy
7:55 PM 35.6 °F 25.2 °F 28.4 °F 75% 29.81 in 10.0 mi SSW 18.4 mph 29.9 mph N/A   Clear
8:15 PM 35.6 °F 24.8 °F 30.2 °F 81% 29.83 in 10.0 mi SSW 19.6 mph 25.3 mph N/A   Clear
8:35 PM 35.6 °F 25.9 °F 30.2 °F 81% 29.84 in 10.0 mi SSW 16.1 mph 26.5 mph N/A   Clear
8:55 PM 35.6 °F 25.5 °F 30.2 °F 81% 29.85 in 10.0 mi SSW 17.3 mph - N/A   Clear
9:15 PM 35.6 °F 28.6 °F 30.2 °F 81% 29.86 in 10.0 mi SSW 9.2 mph - N/A   Mostly Cloudy
9:35 PM 35.6 °F 25.9 °F 30.2 °F 81% 29.86 in 10.0 mi SSW 16.1 mph 20.7 mph N/A   Mostly Cloudy
9:55 PM 35.6 °F 27.5 °F 30.2 °F 81% 29.86 in 10.0 mi SSW 11.5 mph 19.6 mph N/A   Partly Cloudy
10:15 PM 35.6 °F 26.2 °F 28.4 °F 75% 29.88 in 10.0 mi SSW 15.0 mph 20.7 mph N/A   Clear
10:35 PM 35.6 °F 28.0 °F 28.4 °F 75% 29.90 in 10.0 mi South 10.4 mph - N/A   Clear
10:55 PM 35.6 °F 26.2 °F 30.2 °F 81% 29.90 in 10.0 mi SSW 15.0 mph - N/A   Clear
11:15 PM 35.6 °F 26.2 °F 30.2 °F 81% 29.90 in 10.0 mi SSW 15.0 mph 20.7 mph N/A   Clear
11:35 PM 35.6 °F 28.6 °F 30.2 °F 81% 29.90 in 10.0 mi SSW 9.2 mph - N/A   Clear
11:55 PM 35.6 °F 28.6 °F 28.4 °F 75% 29.92 in 10.0 mi South 9.2 mph - N/A   Clear